GW1942 Weather Reports


time (UTC)temp
F
wind
direction
speed
knots
gust
knots
rain 1hr
in
rain 24hr
in
rain mn
in
humidity
%
barometer
mb
20260503023057 70 297 0.0 2.6 0.00 0.00 0.00 33 1012.5
20260503021554 73 311 0.0 3.5 0.00 0.00 0.00 28 1012.4
20260503020053 74 308 0.9 3.5 0.00 0.00 0.00 28 1012.2
20260503014601 74 302 2.6 5.2 0.00 0.00 0.00 26 1012.2
20260503013051 75 326 1.7 5.2 0.00 0.00 0.00 26 1012.1
20260503011552 75 277 1.7 5.2 0.00 0.00 0.00 25 1012.2
20260503010051 76 305 3.5 5.2 0.00 0.00 0.00 24 1012.2
20260503004549 76 278 2.6 7.8 0.00 0.00 0.00 24 1012.4
20260503003048 76 339 0.9 7.0 0.00 0.00 0.00 24 1012.4
20260503001549 73 319 0.9 4.3 0.00 0.00 0.00 26 1012.4
20260503000045 74 291 0.9 7.0 0.00 0.00 0.00 25 1012.4
20260502234551 75 299 1.7 5.2 0.00 0.00 0.00 23 1012.5
20260502233043 77 357 0.9 4.3 0.00 0.00 0.00 22 1012.6
20260502231539 76 332 1.7 4.3 0.00 0.00 0.00 23 1012.8
20260502230037 75 45 0.9 4.3 0.00 0.00 0.00 24 1013.0
20260502224543 76 305 0.0 2.6 0.00 0.00 0.00 24 1013.1
20260502223040 76 110 1.7 5.2 0.00 0.00 0.00 24 1013.2
20260502221531 75 151 1.7 7.0 0.00 0.00 0.00 30 1013.5
20260502220029 76 331 0.9 7.0 0.00 0.00 0.00 27 1013.7
20260502214526 75 117 0.0 5.2 0.00 0.00 0.00 26 1013.9
20260502213025 74 43 1.7 4.3 0.00 0.00 0.00 25 1014.2
20260502211524 74 330 1.7 4.3 0.00 0.00 0.00 27 1014.4
20260502210023 75 40 0.9 4.3 0.00 0.00 0.00 26 1014.5
20260502204519 75 110 0.0 3.5 0.00 0.00 0.00 27 1014.8
20260502203017 74 139 1.7 5.2 0.00 0.00 0.00 26 1014.9
20260502201515 74 210 0.9 5.2 0.00 0.00 0.00 26 1015.2
20260502200013 74 341 0.9 2.6 0.00 0.00 0.00 25 1015.4
20260502194524 73 105 1.7 4.3 0.00 0.00 0.00 32 1015.6
20260502193008 72 247 1.7 4.3 0.00 0.00 0.00 32 1015.8
20260502191504 72 74 0.9 1.7 0.00 0.00 0.00 33 1016.1
20260502190000 71 43 0.0 2.6 0.00 0.00 0.00 38 1016.3
20260502184602 70 289 0.9 3.5 0.00 0.00 0.00 38 1016.5
20260502183056 69 3 0.0 3.5 0.00 0.00 0.00 42 1016.6
20260502181553 67 258 0.0 3.5 0.00 0.00 0.00 42 1016.8
20260502163039 57 124 0.0 1.7 0.00 0.00 0.00 55 1018.0
20260502161525 56 265 0.0 0.9 0.00 0.00 0.00 60 1018.1
20260502151525 51 85 0.0 0.9 0.00 0.00 0.00 70 1018.6
20260502123105 36 115 0.0 0.0 0.00 0.00 0.00 90 1018.2
20260502121557 36 115 0.0 0.0 0.00 0.00 0.00 90 1018.2
20260502114556 37 116 0.0 0.9 0.00 0.00 0.00 89 1018.1
20260502113053 38 214 0.0 0.9 0.00 0.00 0.00 87 1018.1
20260502111547 37 138 0.0 0.0 0.00 0.00 0.00 88 1017.9
20260502110046 38 105 0.0 0.0 0.00 0.00 0.00 87 1018.1
20260502104544 38 105 0.0 0.9 0.00 0.00 0.00 86 1018.0
20260502103043 38 136 0.0 0.0 0.00 0.00 0.00 87 1017.9
20260502101551 39 135 0.0 0.0 0.00 0.00 0.00 85 1017.8
20260502091532 42 150 0.0 2.6 0.00 0.00 0.00 80 1017.4
20260502071518 48 191 0.0 2.6 0.00 0.00 0.00 66 1017.2
20260502070017 45 100 0.0 1.7 0.00 0.00 0.00 72 1017.2
20260502064515 45 193 0.0 0.0 0.00 0.00 0.00 72 1017.2
20260502063013 47 104 0.0 0.9 0.00 0.00 0.00 70 1017.0
20260502061519 48 96 0.0 2.6 0.00 0.00 0.00 69 1016.9
20260502060007 48 182 0.0 1.7 0.00 0.00 0.00 67 1016.7
20260502054507 51 142 0.0 1.7 0.00 0.00 0.00 60 1016.7
20260502053007 49 104 0.0 2.6 0.00 0.00 0.00 63 1016.7
20260502051515 53 139 0.0 6.1 0.00 0.00 0.00 51 1016.4
20260502050006 53 136 1.7 5.2 0.00 0.00 0.00 53 1016.3
20260502044505 51 118 0.0 0.9 0.00 0.00 0.00 63 1016.2
20260502043004 54 168 0.0 1.7 0.00 0.00 0.00 58 1016.1
20260502041512 56 103 0.9 1.7 0.00 0.00 0.00 53 1015.9
20260502040009 58 203 1.7 5.2 0.00 0.00 0.00 49 1015.8
20260502034505 58 131 2.6 6.1 0.00 0.00 0.00 46 1015.6
20260502033003 60 113 3.5 7.0 0.00 0.00 0.00 45 1015.5
20260502031603 60 104 4.3 7.0 0.00 0.00 0.00 46 1015.1
20260502030118 61 103 1.7 6.1 0.00 0.00 0.00 46 1015.0
20260502024606 60 200 0.0 0.9 0.00 0.00 0.00 53 1014.8